CHOMPTT
1 43855U 18104G 24102.59189761 .00203688 00000-0 98131-3 0 9996
2 43855 85.0088 317.9069 0003065 219.9366 140.1683 15.82078300297073
ISAT
1 43879U 18111D 24102.59272203 .00008828 00000-0 57026-3 0 9991
2 43879 97.6249 8.6952 0011908 219.3038 140.7327 15.08417876289375
UWE-4
1 43880U 18111E 24102.54137680 .00008441 00000-0 55572-3 0 9992
2 43880 97.6165 8.8208 0015401 232.0645 127.9192 15.07691186287381
Sparrow
1 43881U 18111F 24102.32032469 .00008595 00000-0 54880-3 0 9999
2 43881 97.6325 10.2031 0008197 269.2198 90.8091 15.08881519289391
AISTechSat 3
1 44103U 19018AB 24102.55483928 .00756777 28046-3 12439-2 0 9997
2 44103 97.1854 170.2260 0009408 239.1551 120.8804 16.03155489281100
AISat 1
1 44104U 19018AC 24102.55328414 .00092089 00000-0 61137-3 0 9992
2 44104 97.3618 209.0165 0021964 227.2882 132.6534 15.74858450282312
Prox-1
1 44339U 19036A 24102.19838837 .00008083 00000-0 14338-2 0 9998
2 44339 24.0004 295.8257 0009231 337.2392 22.7692 14.65042002255405
SONATE
1 44400U 19038Q 24102.54133618 .00017696 00000-0 59472-3 0 9992
2 44400 97.7127 93.8302 0016235 351.1715 8.9237 15.30769134263876
BeeSat 9
1 44412U 19038AC 24102.53554007 .00133916 00000-0 13411-2 0 9999
2 44412 97.6841 104.2169 0002404 318.2993 41.8082 15.65115677264302
JAISAT-1
1 44419U 19038F 24102.55489734 .00124186 00000-0 12993-2 0 9995
2 44419 97.6827 105.2639 0002404 322.4673 37.6417 15.64035216264683
Taurus 1
1 44530U 19059C 24102.86465050 .00005123 00000-0 12259-2 0 9995
2 44530 98.5679 221.3712 0011688 250.2124 109.7812 14.53963267242125
Duchifat 3
1 44854U 19089C 24102.37022549 .00012200 00000-0 66662-3 0 9997
2 44854 36.9580 93.9171 0010153 256.6647 103.2967 15.13693742238130
OPS-SAT
1 44878U 19092F 24102.56240434 .00137690 00000-0 11417-2 0 9991
2 44878 97.4458 305.2076 0003728 145.9126 214.2376 15.69781984240055
TO-108
1 44881U 19093C 24102.81105125 .00001170 00000-0 14858-3 0 9997
2 44881 97.8303 180.8801 0014674 174.6497 185.4877 14.83455995233206
FloripaSat 1
1 44885U 19093G 24102.78875992 .00005094 00000-0 54462-3 0 9997
2 44885 97.8411 185.9198 0013529 169.7644 190.3851 14.89131076233486
RS-44
1 44909U 19096E 24102.57939251 .00000029 00000-0 72251-4 0 9993
2 44909 82.5210 149.0369 0217037 206.6574 152.3239 12.79728501200456
BY70-2
1 45857U 20042B 24102.82843455 .00055287 00000-0 29994-2 0 9997
2 45857 97.9087 192.9009 0004646 110.6453 249.5277 15.14335558204452
UPMSat 2
1 46276U 20061E 24102.44012991 .00012601 00000-0 42045-3 0 9991
2 46276 97.3027 169.5739 0001620 70.7526 289.3890 15.31193587199956
AmicalSat
1 46287U 20061R 24102.67856192 .00022833 00000-0 73538-3 0 9996
2 46287 97.3550 170.1345 0003300 120.3546 239.8023 15.32202903199368
SALSAT
1 46495U 20068K 24102.45779361 .00005281 00000-0 31221-3 0 9993
2 46495 97.8115 60.1610 0014276 173.2771 186.8652 15.11842979194224
AO-109
1 47311U 21002C 24102.32618385 .00582994 15310-3 13339-2 0 9997
2 47311 60.6597 320.3054 0008370 111.0613 249.1404 15.96954462180801
ExoCube 2
1 47319U 21002L 24102.88970404 .00337380 49678-4 12701-2 0 9993
2 47319 60.6602 323.6038 0013224 104.0348 256.2240 15.87338568180760
UVSQ-SAT
1 47438U 21006AB 24102.42566955 .00033053 00000-0 81942-3 0 9997
2 47438 97.3342 162.3545 0008360 103.2044 257.0136 15.40283232178430
YUSAT 1
1 47439U 21006AC 24102.12078645 .00066117 00000-0 11116-2 0 9991
2 47439 97.3323 165.2481 0006162 102.7133 257.4809 15.51511615178591
SOMP 2b
1 47445U 21006AJ 24102.70745253 .00029600 00000-0 78342-3 0 9999
2 47445 97.3309 161.2203 0008502 108.3682 251.8489 15.38299339178415
IDEASSat
1 47458U 21006AX 24102.12566147 .00026417 00000-0 74576-3 0 9990
2 47458 97.3417 161.3105 0008446 110.6596 249.5554 15.36320239178271
CubeSX-Sirius-HSE
1 47951U 21022V 24102.86455911 .00015550 00000-0 67439-3 0 9999
2 47951 97.4672 1.5274 0015886 20.0580 340.1277 15.22330883168470
CubeSX-HSE
1 47952U 21022W 24102.82258528 .00014857 00000-0 64271-3 0 9991
2 47952 97.4671 1.5662 0015796 19.6555 340.5287 15.22428251168479
KSU-Cubesat
1 47954U 21022Y 24102.66174562 .00019604 00000-0 79273-3 0 9993
2 47954 97.4682 2.4529 0014699 17.4199 342.7540 15.24665831168235
GRBAlpha
1 47959U 21022AD 24102.85691785 .00015658 00000-0 67509-3 0 9994
2 47959 97.4676 1.7379 0015633 19.6974 340.4863 15.22532911167302
Orbicraft-Zorkiy
1 47960U 21022AE 24102.86338317 .00017279 00000-0 70968-3 0 9990
2 47960 97.4715 2.8045 0014859 17.5024 342.6723 15.24165498168047
STECCO
1 47962U 21022AG 24102.86177480 .00055228 00000-0 12206-2 0 9990
2 47962 97.4684 9.9618 0006337 5.6538 354.4780 15.43641361167848
MO-110
1 47964U 21022AJ 24102.49004121 .00072319 00000-0 14354-2 0 9998
2 47964 97.4704 10.9320 0006524 358.9455 1.1779 15.46730606167865
TUBIN
1 48900U 21059X 24102.88925090 .00013391 00000-0 50125-3 0 9991
2 48900 97.6368 245.7607 0006497 319.4765 40.5989 15.27413597154799
LEDSAT
1 49069U 21073D 24102.71815822 .00013576 00000-0 59432-3 0 9992
2 49069 97.4419 174.4115 0021507 155.5371 204.6890 15.21945390146334
CUTE
1 49263U 21088D 24102.69736160 .00012619 00000-0 64718-3 0 9998
2 49263 97.5026 169.2539 0013323 312.6124 47.3985 15.16609410139553
TeikyoSat 4
1 49396U 21102B 24102.58700415 .00002081 00000-0 15513-3 0 9995
2 49396 97.4687 149.8630 0015138 137.0546 223.1865 15.03858316132743
Z-Sat
1 49399U 21102E 24102.85309554 .00003590 00000-0 23893-3 0 9993
2 49399 97.4390 151.5265 0022432 123.4570 236.8807 15.07551451132990
KOSEN 1
1 49402U 21102H 24102.88895305 .00006138 00000-0 37684-3 0 9999
2 49402 97.4311 152.7767 0020862 109.8337 250.5144 15.10271856133138
HO-113
1 50466U 21131B 24102.81818401 .00000653 00000-0 22390-3 0 9992
2 50466 98.5275 188.2084 0003406 339.2484 20.8564 14.39473722120455
Tevel-3
1 50988U 22002E 24102.85859466 .00065055 00000-0 11723-2 0 9993
2 50988 97.3853 176.2919 0005196 223.2411 136.8433 15.49556025124724
Tevel-8
1 50989U 22002F 24102.82951669 .00062131 00000-0 11253-2 0 9999
2 50989 97.3871 176.3499 0005185 223.0941 136.9904 15.49423540124711
Tevel-5
1 50998U 22002Q 24102.84988519 .00073372 00000-0 11919-2 0 9993
2 50998 97.3838 177.2983 0005891 217.1446 142.9400 15.52447862124793
Tevel-6
1 50999U 22002R 24102.85259836 .00074276 00000-0 12105-2 0 9990
2 50999 97.3833 177.2788 0005804 217.2931 142.7920 15.52354161124790
Tevel-1
1 51013U 22002AF 24102.81802709 .00062365 00000-0 11297-2 0 9994
2 51013 97.3849 176.1270 0005204 223.7157 136.3683 15.49418588124712
IRIS-A
1 51044U 22002BN 24102.41140816 .00013879 00000-0 50593-3 0 9997
2 51044 97.3905 169.2916 0005304 260.7095 99.3545 15.28277300124214
Tevel-7
1 51062U 22002CG 24102.82147326 .00062531 00000-0 11283-2 0 9996
2 51062 97.3867 176.3154 0005285 222.9710 137.1129 15.49528541124719
Tevel-4
1 51063U 22002CH 24102.85026057 .00061484 00000-0 11200-2 0 9992
2 51063 97.3868 176.2680 0005274 222.9062 137.1778 15.49261446124710
Tevel-2
1 51069U 22002CP 24102.85746862 .00064345 00000-0 11582-2 0 9993
2 51069 97.3850 176.2582 0005193 222.7757 137.3091 15.49591077124724
